Meteo Giornale » Osservazioni meteo Italia » Falconara

ore: 08:50 - Osservazioni Meteo Falconara
Lat. 43° 37' N Lon. 13° 22' E Alt. 12 metri s.l.m.

molto_nuvoloso Europe/Rome

9 °C

Molto Nuvoloso

Temp. 24 Ore

8 °C

17 °C

Ovest/Nord-Ovest

11.1 Km/h

Dew point 6 °C

Umidità 81 %

Visibilità  10 Km

Il sole sorge alle ore 06:09

Il sole tramonta alle ore 18:18

Data e Ora Cielo e Fenomeni T °C DP °C Um. % Pres. hPa Vis. km Vento km/h
Oggi h: 08:50 molto_nuvoloso Molto Nuvoloso 9 6 81 1018 10 O/NO 11.1
Oggi h: 08:09 molto_nuvoloso Molto Nuvoloso 8 5 81 1018 8 NO 16.7
Oggi h: 07:50 coperto_pioggia Pioggia Debole Foschia 8 6 87 1018 5 NO 18.5
Oggi h: 06:50 coperto_pioggia Pioggia Debole Foschia 8 8 100 1017 4 N/NO 20.3
Oggi h: 05:58 coperto_pioggia Pioggia Debole 9 8 93 1017 6 NO 11.1
Oggi h: 05:50 coperto_pioggia Pioggia Debole 9 8 93 1017 10 NO 9.3
Oggi h: 04:50 coperto_pioggia Pioggia Debole 9 8 93 1017 10 N 11.1
Oggi h: 04:15 coperto_pioggia Pioggia Debole 9 8 93 1016 10 N 11.1
Oggi h: 04:01 coperto_pioggia Pioviggine 9 8 93 1016 5 N/NO 11.1
Oggi h: 03:50 coperto_pioggia Pioggia Debole 9 8 93 1016 10 N 13
Oggi h: 02:50 molto_nuvoloso Molto Nuvoloso 10 8 87 1016 10 N/NO 13
Oggi h: 01:50 molto_nuvoloso Molto Nuvoloso 10 8 87 1016 10 N 14.8
Oggi h: 00:50 molto_nuvoloso Molto Nuvoloso 10 8 87 1017 10 N 14.8
Oggi h: 00:12 molto_nuvoloso Molto Nuvoloso 10 8 87 1016 10 N 13
Ieri h: 23:50 nuvoloso Nuvoloso 10 8 87 1017 10 N 9.3
Ieri h: 22:50 nuvoloso Nuvoloso 10 8 87 1017 10 N/NE 14.8
Ieri h: 21:50 nuvoloso Nuvoloso 10 8 87 1016 10 N 14.8
Ieri h: 20:50 nuvoloso Nuvoloso 10 8 87 1016 10 N 14.8
Ieri h: 19:50 molto_nuvoloso Molto Nuvoloso 9 8 93 1016 10 O/NO 11.1
Ieri h: 18:50 coperto_pioggia Pioviggine Leggera 10 9 93 1016 10 O 14.8
Ieri h: 17:19 coperto_pioggia Pioggia 10 9 93 1015 10 NO 16.7
Ieri h: 16:50 molto_nuvoloso Molto Nuvoloso 11 8 81 1014 10 N/NO 16.7
Ieri h: 15:50 molto_nuvoloso Molto Nuvoloso 11 9 87 1014 10 N/NO 18.5
Ieri h: 13:50 nuvoloso Nuvoloso 12 9 81 1013 10 N/NO 22.2
Ieri h: 12:50 nuvoloso Nuvoloso 13 9 76 1013 10 N/NO 24
Ieri h: 12:10 nuvoloso Nuvoloso 14 9 71 1013 10 NO 27.8
Ieri h: 11:50 nuvoloso Nuvoloso 17 8 55 1012 10 O 18.5
Ieri h: 10:50 poco_nuvoloso Poco Nuvoloso 17 8 55 1012 10 O 7.4
Ieri h: 09:50 poco_nuvoloso Poco Nuvoloso 16 9 63 1012 10 N 5.5
Ieri h: 08:50 poco_nuvoloso Poco Nuvoloso 16 11 72 1012 10 N 3.7